Location: Academy at Carrie F Thomas
(32.8490°N, 97.2053°W)
Time: 23:16:46
(UTC+00:00)

Meteor 1-25 Rocket - Pass Details

Date: 07 July 2022
Orbit: 836 x 892 km, 81.2° (Epoch: 07 August)

Event Time Altitude Azimuth Distance (km) Brightness Sun altitude
Exits shadow 09:58:42 18° 263° (W) 2,028 5.7 -16.1°
Maximum altitude 10:00:30 21° 287° (WNW) 1,896 5.7 -15.8°
Drops below altitude 10° 10:04:48 10° 335° (NNW) 2,558 6.9 -15.2°
Sets 10:07:54 0° 351° (N) 3,495 7.9 -14.7°
